This is the latest recevied weather packets stored in our database for station/object KC3WWU. If no packets are shown the sender has not sent any weather packets the latest 10 day(s).
| Time | Temp. | Humidity | Pressure | Rain* | Wind** | Luminosity | Snow |
|---|---|---|---|---|---|---|---|
| 1777612385 | 1.11° C | 99% | 1011.7 hPa | 0 mm | - | 0 W/m² | - |
| 1777612080 | 1.11° C | 99% | 1012 hPa | 0 mm | - | 0 W/m² | - |
| 1777611775 | 1.11° C | 99% | 1011.6 hPa | 0 mm | - | 0 W/m² | - |
| 1777611472 | 1.11° C | 99% | 1011.8 hPa | 0 mm | - | 0 W/m² | - |
| 1777611170 | 1.11° C | 99% | 1011.8 hPa | 0 mm | - | 0 W/m² | - |
| 1777610863 | 1.67° C | 99% | 1012.1 hPa | 0 mm | - | 0 W/m² | - |
| 1777610560 | 1.67° C | 99% | 1011.8 hPa | 0 mm | - | 0 W/m² | - |
| 1777610254 | 1.67° C | 99% | 1012.1 hPa | 0 mm | - | 0 W/m² | - |
| 1777609952 | 1.67° C | 99% | 1012 hPa | 0 mm | - | 0 W/m² | - |
| 1777609648 | 2.22° C | 99% | 1012.2 hPa | 0 mm | - | 0 W/m² | - |
| 1777609345 | 2.22° C | 99% | 1012 hPa | 0 mm | - | 0 W/m² | - |
| 1777609043 | 2.78° C | 99% | 1011.7 hPa | 0 mm | - | 0 W/m² | - |
| 1777608740 | 2.78° C | 99% | 1012.1 hPa | 0 mm | - | 0 W/m² | - |
| 1777608436 | 3.33° C | 99% | 1011.8 hPa | 0 mm | - | 0 W/m² | - |
| 1777608134 | 3.33° C | 99% | 1011.7 hPa | 0 mm | - | 0 W/m² | - |
| 1777607831 | 2.78° C | 99% | 1012 hPa | 0 mm | - | 0 W/m² | - |
| 1777607527 | 2.78° C | 99% | 1011.8 hPa | 0 mm | - | 0 W/m² | - |
| 1777607223 | 2.78° C | 99% | 1012 hPa | 0 mm | - | 0 W/m² | - |
| 1777606920 | 2.78° C | 99% | 1011.8 hPa | 0 mm | - | 0 W/m² | - |
| 1777606615 | 2.22° C | 99% | 1011.7 hPa | 0 mm | - | 0 W/m² | - |
| 1777606310 | 1.67° C | 99% | 1011.8 hPa | 0 mm | - | 0 W/m² | - |
| 1777606006 | 1.11° C | 99% | 1011.7 hPa | 0 mm | - | 0 W/m² | - |
| 1777605702 | 1.67° C | 99% | 1011.7 hPa | 0 mm | - | 0 W/m² | - |
| 1777605401 | 1.67° C | 99% | 1011.7 hPa | 0 mm | - | 0 W/m² | - |
| 1777605098 | 1.67° C | 99% | 1011.8 hPa | 0 mm | - | 0 W/m² | - |
* Rain latest hour (hover to see other rain measurements)
** Current wind speed in m/s (hover to see current wind gust speed)